Volver al catálogo

STARLINK-35478

ActivoComunicacionesVLEO
NORAD 65917·PAYLOAD·🇺🇸 United States

Lanzado Oct 8, 2025 desde Vandenberg Space Force Base

Loading…

Próximos Pases (próximas 24 horas)

TLE

ActualizadoSource: CelesTrak SupGP

Época: Sep 14, 2026, 21:28 UTC

1 65917C 25225H   26257.89493056  .00005889  00000+0  17399-3 0  2578
2 65917  53.1603   4.0587 0001263  73.2260 354.1639 15.34387641    18

Sigue STARLINK-35478 en tiempo real con AllMySat

Download on the App Store